Location: Vulcan
(50.4000°N, 113.2500°W)
Time: 21:48:50
(UTC-07:00)

Vanguard 3 - Visible Passes

Search period start: 17 November 2019 00:00
Search period end: 27 November 2019 00:00
Orbit: 508 x 3263 km, 33.3° (Epoch: 17 November)

Date Brightness Start Highest point End Pass type
(mag) Time Alt. Az. Time Alt. Az. Time Alt. Az.
17 Nov 10.3 18:30:23 10° WSW 18:44:56 34° SSW 18:54:42 10° SE visible
17 Nov 10.4 20:48:56 10° WSW 20:55:53 16° SW 21:00:35 11° SSW visible
18 Nov 10.5 17:13:19 10° WSW 17:30:00 40° S 17:41:40 10° SE visible
18 Nov 10.4 19:30:13 10° W 19:42:11 26° SW 19:50:36 10° SSE visible
19 Nov 10.5 18:12:33 10° WSW 18:27:48 35° SSW 18:38:22 10° SE visible
19 Nov 10.6 20:31:33 10° WSW 20:38:51 16° SW 20:44:39 10° SSW visible
20 Nov 10.7 16:55:30 10° WSW 17:12:42 41° SSW 17:25:16 10° SE visible
20 Nov 10.6 19:12:32 10° W 19:25:03 26° SW 19:34:06 10° SSE visible
21 Nov 10.7 17:54:47 10° W 18:10:32 35° SSW 18:21:54 10° SSE visible
21 Nov 10.9 20:14:16 10° WSW 20:21:41 15° SW 20:27:45 10° SSW visible
22 Nov 10.8 18:54:54 10° W 19:07:47 25° SW 19:17:27 10° S visible
23 Nov 10.9 17:37:08 10° W 17:53:08 34° SSW 18:05:16 10° SSE visible
23 Nov 11.1 19:57:08 10° WSW 20:04:24 14° SW 20:10:33 10° SSW visible
24 Nov 11.0 18:37:22 10° W 18:50:23 24° SW 19:00:35 10° S visible
25 Nov 11.1 17:19:35 10° W 17:35:38 33° SSW 17:48:27 10° SSE visible
25 Nov 11.3 19:40:14 10° WSW 19:47:01 13° SW 19:52:57 10° SSW visible
26 Nov 11.2 18:19:58 10° W 18:32:53 23° SW 18:43:29 10° S visible
